Погода в Мартуке

Казахстан     50°44′45″N   56°30′14″E
темп.,
°C
ветер,
м/с
пор.,
м/с
влажн.,
%
обл.,
%
осадки,
мм/ч
давл.,
гПа
погр.,
м
1 марта, пн
пн123:00−15зюз4995100 0.8 1011294
02:00−17зюз489699 0.1 1013224
05:00−17зюз469699 0.1 1015183
08:00−17зюз369792 0.1 1016179
11:00−15зюз469491 0.3 1018277
14:00−13зюз4593100 0.1 1019349
17:00−13з5792100 0.1 1020421
20:00−14зюз489599 0.1 1021257
2 марта, вт
вт223:00−16з489794 0.2 1022181
02:00−20з45100100 0.0 102288
05:00−22з44100100 0.1 102374
08:00−24зюз349994 0.0 102347
11:00−19зюз469586 0.0 1023255
14:00−15юз699285 0.0 1021354
17:00−12юз7128992 0.0 1018484
20:00−9юз71591100 0.1 1016572
3 марта, ср
ср323:00−6юз81690100 0.2 1013693
02:00−4юз9159297 0.1 1010758
05:00−3юз9169598 0.9 1009845
08:00−3юз91595100 0.9 1007778
11:00−2юз91494100 1.6 1007838
14:00−1юз91396100 0.9 1005862
17:000юз81296100 1.8 1004827
20:00−1юз61097100 1.0 1004541
4 марта, чт
чт423:00−1юз5997100 1.9 1005435
02:00−2з4797100 0.9 1004295
05:00−7сз5894100 1.4 1006248
08:00−9сз4795100 0.1 1009356
11:00−9зсз5894100 0.1 1012303
14:00−8зсз589283 0.0 1014421
17:00−8з5109190 0.0 1015446
20:00−12юз5119445 0.0 1016221
5 марта, пт
пт523:00−8юз8159272 0.1 1016605
02:00−6юз91791100 0.2 1015678
05:00−6юз101887100 0.2 1014540
08:00−5юз10198696 0.0 1014538
11:00−3юз10198455 0.0 1015678
14:00−2юз10178455 0.0 1015823
17:00−1юз9168570 0.0 1016792
20:00−2юз8168996 0.0 1016673